Location: Newark
(47.3150°N, 5.1150°E)
Time: 11:20:49
(UTC+00:00)

Envisat - Pass Details

Date: 29 October 2019
Orbit: 764 x 766 km, 98.1° (Epoch: 14 November)

Event Time Altitude Azimuth Distance (km) Brightness Sun altitude
Rises 05:38:19 0° 24° (NNE) 3,242 6.4 -7.3°
Reaches altitude 10° 05:41:03 10° 38° (NE) 2,311 5.9 -6.8°
Maximum altitude 05:45:11 24° 93° (E) 1,530 5.7 -6.1°
Drops below altitude 10° 05:49:16 10° 147° (SSE) 2,296 6.2 -5.5°
Sets 05:51:58 0° 161° (SSE) 3,217 6.7 -5.0°
